Breckenridge, TX

5:59 PM CST on February 23, 2017 (GMT -0600)
Stephens County

Weather History for KBKD - February, 2014

Change the Weather History Date:

Friday, February 7, 2014

  Actual Average (KMWL) Record (KMWL)
Temperature  
Mean Temperature 26 °F -  
Max Temperature 32 °F 56 °F 79 °F (2009)
Min Temperature 20 °F 34 °F 21 °F (2003)
Degree Days  
Heating Degree Days 39    
Moisture  
Dew Point 20 °F    
Average Humidity 78    
Maximum Humidity 96    
Minimum Humidity 72    
Precipitation  
Precipitation 0.00 in - - ()
Sea Level Pressure  
Sea Level Pressure 30.25 in    
Wind  
Wind Speed 3 mph (SSE)    
Max Wind Speed 10 mph    
Max Gust Speed -    
Visibility 10 miles    
Events      
Averages and records for this station are not official NWS values.
T = Trace of Precipitation, MM = Missing Value Source: NWS Daily Summary

Daily Weather History Graph

Daily Weather History Graph

Search for Another Location

Airport or City:

Trip Planner

Search our weather history database for the weather conditions in past years. The results will help you decide how hot, cold, wet, or windy it might be!

Date:

Astronomy

Feb. 07, 2014 Rise Set
Actual Time 7:25 AM CST 6:14 PM CST
Civil Twilight 7:00 AM CST 6:39 PM CST
Nautical Twilight 6:31 AM CST 7:08 PM CST
Astronomical Twilight 6:02 AM CST 7:37 PM CST
Moon 12:29 PM CST (2/7) 1:40 AM CST (2/7)
Length of Visible Light 11h 39m
Length of Day
10h 48m
First Quarter, 59% of the Moon is Illuminated
Feb 7
First Quarter
Feb 14
Full
Feb 22
Last Quarter
Mar 1
New
Mar 8
First Quarter

Hourly Weather History & Observations

Time (CST) Temp. Windchill Dew Point Humidity Pressure Visibility Wind Dir Wind Speed Gust Speed Precip Events Conditions
12:10 AM 20.1 °F 15.2 °F 13.3 °F 75% 30.37 in 10.0 mi NNE 3.5 mph - N/A   Overcast
12:30 AM 20.3 °F 13.8 °F 13.6 °F 75% 30.35 in 10.0 mi ENE 4.6 mph - N/A   Overcast
12:50 AM 20.3 °F - 13.8 °F 76% 30.35 in 10.0 mi Calm Calm - N/A   Overcast
1:10 AM 20.5 °F - 13.8 °F 75% 30.35 in 10.0 mi Calm Calm - N/A   Overcast
1:30 AM 20.5 °F - 14.0 °F 76% 30.36 in 10.0 mi Calm Calm - N/A   Overcast
1:50 AM 20.3 °F - 13.8 °F 76% 30.34 in 10.0 mi Calm Calm - N/A   Overcast
2:10 AM 20.3 °F - 13.8 °F 76% 30.34 in 10.0 mi Calm Calm - N/A   Overcast
2:30 AM 20.8 °F - 14.0 °F 75% 30.34 in 10.0 mi Calm Calm - N/A   Overcast
2:50 AM 20.8 °F - 14.0 °F 75% 30.34 in 10.0 mi Calm Calm - N/A   Overcast
3:10 AM 20.8 °F - 14.2 °F 75% 30.33 in 10.0 mi Calm Calm - N/A   Overcast
3:30 AM 20.8 °F - 14.2 °F 75% 30.31 in 10.0 mi Calm Calm - N/A   Overcast
3:50 AM 21.2 °F - 14.5 °F 75% 30.31 in 10.0 mi Calm Calm - N/A   Overcast
4:10 AM 21.0 °F 13.4 °F 14.2 °F 75% 30.30 in 10.0 mi ESE 5.8 mph - N/A   Overcast
4:30 AM 21.2 °F 16.4 °F 14.9 °F 77% 30.30 in 10.0 mi East 3.5 mph - N/A   Overcast
4:50 AM 21.2 °F 16.4 °F 14.9 °F 77% 30.30 in 10.0 mi ENE 3.5 mph - N/A   Overcast
5:10 AM 21.2 °F 16.4 °F 14.7 °F 76% 30.29 in 10.0 mi ENE 3.5 mph - N/A   Overcast
5:30 AM 21.2 °F - 14.9 °F 77% 30.30 in 10.0 mi Calm Calm - N/A   Overcast
5:50 AM 21.4 °F 16.6 °F 15.3 °F 77% 30.28 in 10.0 mi East 3.5 mph - N/A   Overcast
6:10 AM 21.4 °F 13.8 °F 15.3 °F 77% 30.28 in 10.0 mi East 5.8 mph - N/A   Overcast
6:30 AM 21.4 °F - 15.1 °F 77% 30.30 in 10.0 mi Calm Calm - N/A   Overcast
6:50 AM 21.7 °F - 15.4 °F 77% 30.31 in 10.0 mi Calm Calm - N/A   Overcast
7:10 AM 21.6 °F - 15.3 °F 77% 30.32 in 10.0 mi Calm Calm - N/A   Overcast
7:30 AM 21.7 °F - 15.4 °F 77% 30.31 in 10.0 mi Calm Calm - N/A   Overcast
7:50 AM 21.7 °F - 15.6 °F 77% 30.31 in 10.0 mi Calm Calm - N/A   Overcast
8:10 AM 22.1 °F - 15.8 °F 77% 30.32 in 10.0 mi Calm Calm - N/A   Overcast
8:30 AM 22.6 °F - 16.3 °F 77% 30.32 in 10.0 mi Calm Calm - N/A   Overcast
8:50 AM 22.6 °F - 16.3 °F 77% 30.33 in 10.0 mi Calm Calm - N/A   Overcast
9:10 AM 23.0 °F - 16.5 °F 76% 30.33 in 10.0 mi Calm Calm - N/A   Overcast
9:30 AM 23.4 °F - 16.7 °F 76% 30.31 in 10.0 mi Calm Calm - N/A   Overcast
9:50 AM 23.9 °F - 16.9 °F 75% 30.31 in 10.0 mi Calm Calm - N/A   Overcast
10:15 AM 24.6 °F 20.3 °F 17.6 °F 75% 30.31 in 10.0 mi SSE 3.5 mph - N/A   Overcast
10:30 AM 25.3 °F 18.5 °F 17.6 °F 72% 30.31 in 10.0 mi SSE 5.8 mph - N/A   Overcast
10:50 AM 26.1 °F - 18.3 °F 73% 30.31 in 10.0 mi Calm Calm - N/A   Overcast
11:10 AM 26.2 °F 22.1 °F 18.3 °F 72% 30.31 in 10.0 mi SSE 3.5 mph - N/A   Overcast
11:30 AM 27.0 °F 20.5 °F 18.9 °F 72% 30.30 in 10.0 mi South 5.8 mph - N/A   Overcast
11:50 AM 27.1 °F 23.2 °F 19.0 °F 72% 30.30 in 10.0 mi South 3.5 mph - N/A   Overcast
12:10 PM 28.0 °F 24.2 °F 20.5 °F 73% 30.29 in 10.0 mi SSW 3.5 mph - N/A   Overcast
12:30 PM 27.5 °F 22.2 °F 19.8 °F 73% 30.27 in 10.0 mi SSW 4.6 mph - N/A   Overcast
12:50 PM 28.4 °F 23.3 °F 21.2 °F 74% 30.26 in 10.0 mi South 4.6 mph - N/A   Overcast
1:10 PM 28.4 °F 23.3 °F 22.1 °F 77% 30.25 in 5.0 mi South 4.6 mph - N/A   Overcast
1:30 PM 28.4 °F 22.2 °F 23.4 °F 81% 30.23 in 3.0 mi South 5.8 mph - N/A   Overcast
1:50 PM 28.8 °F 23.7 °F 23.5 °F 81% 30.21 in 5.0 mi SSW 4.6 mph - N/A   Overcast
2:10 PM 29.3 °F 24.3 °F 23.4 °F 78% 30.20 in 10.0 mi SW 4.6 mph - N/A   Overcast
2:30 PM 30.0 °F 25.2 °F 24.1 °F 79% 30.20 in 10.0 mi SSW 4.6 mph - N/A   Overcast
2:50 PM 31.1 °F 25.4 °F 24.4 °F 76% 30.18 in 10.0 mi SSE 5.8 mph - N/A   Overcast
3:10 PM 30.9 °F 25.2 °F 24.1 °F 76% 30.17 in 10.0 mi SSE 5.8 mph - N/A   Overcast
3:30 PM 32.9 °F 25.3 °F 25.5 °F 74% 30.16 in 10.0 mi SE 9.2 mph - N/A   Overcast
3:50 PM 32.9 °F 27.5 °F 25.9 °F 75% 30.16 in 10.0 mi SSE 5.8 mph - N/A   Overcast
4:10 PM 32.4 °F 26.0 °F 25.5 °F 76% 30.17 in 10.0 mi South 6.9 mph - N/A   Overcast
4:30 PM 32.0 °F 24.8 °F 25.3 °F 76% 30.16 in 10.0 mi SSE 8.1 mph - N/A   Overcast
4:50 PM 32.0 °F 25.6 °F 25.7 °F 78% 30.17 in 10.0 mi South 6.9 mph - N/A   Overcast
5:10 PM 32.2 °F 25.0 °F 25.7 °F 77% 30.16 in 10.0 mi SSE 8.1 mph - N/A   Overcast
5:30 PM 32.0 °F 24.8 °F 26.1 °F 79% 30.16 in 10.0 mi South 8.1 mph - N/A   Overcast
5:50 PM 32.0 °F 26.4 °F 25.7 °F 78% 30.16 in 10.0 mi SSE 5.8 mph - N/A   Overcast
6:10 PM 32.0 °F 24.8 °F 25.7 °F 78% 30.16 in 10.0 mi SSE 8.1 mph - N/A   Overcast
6:30 PM 32.0 °F 24.2 °F 25.7 °F 78% 30.16 in 10.0 mi South 9.2 mph - N/A   Overcast
6:50 PM 32.0 °F 25.6 °F 25.5 °F 77% 30.17 in 10.0 mi South 6.9 mph - N/A   Overcast
7:10 PM 32.0 °F 24.8 °F 25.3 °F 76% 30.17 in 10.0 mi SSE 8.1 mph - N/A   Overcast
7:30 PM 32.0 °F 23.6 °F 25.5 °F 77% 30.16 in 10.0 mi SSE 10.4 mph - N/A   Overcast
7:50 PM 31.6 °F 24.4 °F 25.2 °F 77% 30.16 in 10.0 mi SSE 8.1 mph - N/A   Scattered Clouds
8:10 PM 31.1 °F 23.7 °F 25.2 °F 79% 30.17 in 10.0 mi SSE 8.1 mph - N/A   Clear
8:30 PM 30.6 °F 23.8 °F 24.8 °F 79% 30.17 in 10.0 mi SSE 6.9 mph - N/A   Clear
8:50 PM 30.2 °F 22.6 °F 24.8 °F 80% 30.17 in 10.0 mi SE 8.1 mph - N/A   Clear
9:10 PM 29.8 °F 23.9 °F 24.8 °F 81% 30.17 in 10.0 mi SE 5.8 mph - N/A   Clear
9:30 PM 29.3 °F 21.5 °F 25.0 °F 84% 30.17 in 10.0 mi SSE 8.1 mph - N/A   Clear
9:50 PM 29.3 °F 22.3 °F 25.2 °F 85% 30.15 in 10.0 mi SE 6.9 mph - N/A   Clear
10:10 PM 29.1 °F 22.1 °F 25.3 °F 86% 30.16 in 10.0 mi SSE 6.9 mph - N/A   Clear
10:30 PM 28.9 °F 22.8 °F 25.7 °F 88% 30.15 in 7.0 mi SSE 5.8 mph - N/A   Clear
10:50 PM 28.4 °F 21.2 °F 27.0 °F 94% 30.14 in 7.0 mi SSE 6.9 mph - N/A   Clear
11:10 PM 28.9 °F 22.8 °F 27.5 °F 94% 30.13 in 7.0 mi SSE 5.8 mph - N/A   Clear
11:30 PM 29.1 °F 23.0 °F 27.9 °F 95% 30.13 in 7.0 mi SSE 5.8 mph - N/A   Clear
11:50 PM 29.1 °F 23.0 °F 28.0 °F 96% 30.13 in 7.0 mi South 5.8 mph - N/A   Scattered Clouds